Preview of NWS' New Version of Forecast
This preview is not operational and should not be used for support decisions.

Regional Weather Roundup (RWR)

Issued by National Weather Service (NWS)

                            
000
ASUS43 KTOP 210459
RWRKS 

WEATHER ROUNDUP FOR KANSAS
NATIONAL WEATHER SERVICE GOODLAND KS
1100 PM CST WED FEB 20 2019

NOTE:  "FAIR" INDICATES FEW OR NO CLOUDS BELOW 12,000 FEET WITH NO
SIGNIFICANT WEATHER AND/OR OBSTRUCTIONS TO VISIBILITY.

KSZ001>006-013>018-027>032-041>047-210600-
NORTHWEST KANSAS
  
CITY           SKY/WX    TMP DP  RH WIND       PRES   REMARKS
GOODLAND       CLEAR     18   8  65 S10       29.82R WCI   6          
HAYS           CLEAR     24  19  81 SE6       29.93R                  
HILL CITY      CLEAR     19  15  84 NW5       29.89S                  
RUSSELL        CLEAR     22  18  85 S12       29.92R WCI  10          
$$

KSZ061>065-074>080-084>089-210600-
SOUTHWEST KANSAS
  
CITY           SKY/WX    TMP DP  RH WIND       PRES   REMARKS
DODGE CITY     CLEAR     24  14  65 SE12      29.90R WCI  13          
ELKHART        CLEAR     30  17  59 SE17      29.79F WCI  18          
GARDEN CITY    CLEAR     26  14  60 SE14      29.86R WCI  14          
GREAT BEND     CLEAR     24  21  88 SE5       29.96R                  
LIBERAL        CLEAR     30  20  66 SE17      29.86S WCI  18          
$$

KSZ066>073-081>083-090>101-210600-
SOUTHEAST KANSAS
  
CITY           SKY/WX    TMP DP  RH WIND       PRES   REMARKS
CHANUTE        CLEAR     26  22  84 S3        30.05S                  
COFFEYVILLE    PTCLDY    28  26  92 NE5       30.06R FOG              
HUTCHINSON     FOG       19  19 100 SE5       29.99R VSB 3/4          
MEDICINE LODGE   N/A     22  20  92 CALM      29.98R                  
NEWTON         CLEAR     22  20  92 S8        30.01R FOG              
PARSONS        PTCLDY    27  26  96 NE3       30.06S FOG              
WICHITA INTL   CLOUDY    25  24  96 SE6       30.01R FOG              
WICHITA JABRA  CLEAR     24  21  88 S6        30.01R FOG              
WICHITA MCCONL CLEAR     25  25  97 E6        30.01R                  
WINFIELD       CLOUDY    26  22  84 E6        30.03S                  
$$

KSZ007>012-019>026-033>040-048>060-102>105-210600-
NORTHEAST KANSAS
  
CITY           SKY/WX    TMP DP  RH WIND       PRES   REMARKS
CONCORDIA      CLOUDY    24  15  68 S13       29.95R WCI  12          
EMPORIA        CLOUDY    25  23  92 SE5       30.01R FOG              
LAWRENCE       CLEAR     31  23  72 SW6       30.02R                  
MANHATTAN      CLEAR     21  19  92 CALM      30.00R                  
OLATHE IND     CLOUDY    27  24  89 S10       30.03R WCI  17          
OLATHE EXE     CLOUDY    27  23  85 SW5       30.02R                  
SALINA         CLEAR     23  21  92 S10       29.99R WCI  12          
TOPEKA BILLARD CLEAR     30  22  72 S5        30.01R                  
TOPEKA FORBES  CLEAR     22  18  85 S8        30.00                   
$$